| time (UTC) | temp C | wind direction | speed KPH | gust KPH | rain 1hr cm | rain 24hr cm | rain mn cm | humidity % | barometer mb |
| 20260507080025 | 12 | 264 | 0.0 | 9.7 | 0.00 | 0.84 | 0.00 | 32 | 1008.9 |
| 20260507073025 | 11 | 246 | 0.0 | 9.7 | 0.00 | 0.84 | 0.00 | 36 | 1008.2 |
| 20260507070025 | 10 | 185 | 0.0 | 6.4 | 0.00 | 0.84 | 0.00 | 37 | 1008.6 |
| 20260507063026 | 8 | 206 | 0.0 | 4.8 | 0.00 | 0.84 | 0.00 | 39 | 1009.2 |
| 20260507060025 | 8 | 131 | 0.0 | 4.8 | 0.00 | 0.84 | 0.00 | 48 | 1009.6 |
| 20260507053025 | 7 | 185 | 0.0 | 0.0 | 0.00 | 0.84 | 0.00 | 53 | 1009.9 |
| 20260507050025 | 6 | 265 | 0.0 | 3.2 | 0.00 | 0.84 | 0.00 | 55 | 1010.3 |
| 20260507043025 | 5 | 357 | 0.0 | 4.8 | 0.00 | 0.94 | 0.00 | 53 | 1009.5 |
| 20260507040025 | 5 | 357 | 0.0 | 4.8 | 0.00 | 0.94 | 0.00 | 52 | 1009.8 |
| 20260507033025 | 5 | 53 | 0.0 | 0.0 | 0.00 | 0.94 | 0.00 | 50 | 1009.9 |
| 20260507030025 | 5 | 53 | 0.0 | 0.0 | 0.00 | 0.94 | 0.00 | 51 | 1009.7 |
| 20260507023025 | 5 | 53 | 0.0 | 6.4 | 0.00 | 0.94 | 0.00 | 52 | 1009.5 |
| 20260507020025 | 6 | 320 | 0.0 | 3.2 | 0.00 | 0.94 | 0.00 | 51 | 1009.3 |
| 20260507013025 | 6 | 315 | 0.0 | 4.8 | 0.00 | 0.94 | 0.00 | 52 | 1009.3 |
| 20260507010025 | 6 | 259 | 0.0 | 0.0 | 0.00 | 0.94 | 0.00 | 51 | 1009.4 |
| 20260507003026 | 6 | 44 | 0.0 | 0.0 | 0.00 | 0.94 | 0.00 | 50 | 1009.4 |
| 20260507000025 | 6 | 44 | 0.0 | 0.0 | 0.00 | 0.94 | 0.00 | 48 | 1009.4 |
| 20260506233025 | 6 | 12 | 0.0 | 4.8 | 0.00 | 0.94 | 0.00 | 48 | 1009.2 |
| 20260506230026 | 6 | 6 | 0.0 | 0.0 | 0.00 | 0.94 | 0.00 | 45 | 1009.1 |
| 20260506223026 | 7 | 2 | 0.0 | 8.0 | 0.00 | 0.94 | 0.00 | 45 | 1008.8 |
| 20260506220026 | 7 | 41 | 0.0 | 8.0 | 0.00 | 0.94 | 0.94 | 47 | 1008.6 |
| 20260506213026 | 8 | 225 | 0.0 | 4.8 | 0.00 | 0.94 | 0.94 | 49 | 1009.5 |
| 20260506210026 | 7 | 314 | 0.0 | 8.0 | 0.00 | 0.94 | 0.94 | 49 | 1008.5 |
| 20260506203026 | 7 | 15 | 0.0 | 4.8 | 0.00 | 0.94 | 0.94 | 44 | 1008.5 |
| 20260506200026 | 8 | 314 | 0.0 | 6.4 | 0.10 | 0.94 | 0.94 | 44 | 1008.3 |
| 20260506193026 | 8 | 44 | 0.0 | 8.0 | 0.10 | 0.94 | 0.94 | 45 | 1007.1 |
| 20260506190026 | 8 | 323 | 0.0 | 0.0 | 0.00 | 0.84 | 0.84 | 43 | 1007.1 |
| 20260506183026 | 8 | 325 | 0.0 | 4.8 | 0.00 | 0.84 | 0.84 | 39 | 1007.1 |
| 20260506180026 | 10 | 248 | 0.0 | 6.4 | 0.00 | 0.84 | 0.84 | 37 | 1006.5 |
| 20260506173026 | 10 | 251 | 0.0 | 12.9 | 0.00 | 0.84 | 0.84 | 36 | 1005.0 |
| 20260506170026 | 11 | 273 | 0.0 | 9.7 | 0.00 | 0.84 | 0.84 | 37 | 1004.9 |
| 20260506163026 | 11 | 302 | 0.0 | 9.7 | 0.00 | 0.84 | 0.84 | 36 | 1004.9 |
| 20260506160026 | 11 | 217 | 0.0 | 12.9 | 0.00 | 0.84 | 0.84 | 36 | 1004.9 |
| 20260506150026 | 11 | 268 | 0.0 | 11.3 | 0.00 | 0.84 | 0.84 | 36 | 1004.8 |
| 20260506143026 | 10 | 259 | 0.0 | 17.7 | 0.00 | 0.84 | 0.84 | 36 | 1006.4 |
| 20260506140027 | 9 | 212 | 0.0 | 16.1 | 0.20 | 0.84 | 0.84 | 37 | 1006.7 |
| 20260506133026 | 8 | 271 | 0.0 | 9.7 | 0.64 | 0.84 | 0.84 | 41 | 1007.0 |
| 20260506130026 | 8 | 247 | 0.0 | 19.3 | 0.30 | 0.51 | 0.51 | 43 | 1008.1 |
| 20260506123026 | 11 | 274 | 0.0 | 12.9 | 0.00 | 0.20 | 0.20 | 37 | 1004.6 |
| 20260506120026 | 11 | 237 | 0.0 | 14.5 | 0.00 | 0.20 | 0.20 | 37 | 1004.6 |
| 20260506113026 | 12 | 243 | 0.0 | 16.1 | 0.00 | 0.20 | 0.20 | 36 | 1004.2 |
| 20260506110028 | 10 | 276 | 0.0 | 12.9 | 0.10 | 0.20 | 0.20 | 38 | 1006.2 |
| 20260506103026 | 11 | 265 | 0.0 | 16.1 | 0.10 | 0.33 | 0.20 | 36 | 1006.0 |
| 20260506100026 | 10 | 202 | 0.0 | 9.7 | 0.00 | 0.20 | 0.10 | 38 | 1006.3 |
| 20260506093026 | 10 | 282 | 0.0 | 12.9 | 0.00 | 0.20 | 0.10 | 39 | 1006.3 |
| 20260506090026 | 10 | 319 | 0.0 | 9.7 | 0.00 | 0.20 | 0.10 | 41 | 1006.4 |
| 20260506083027 | 10 | 294 | 0.0 | 4.8 | 0.00 | 0.20 | 0.10 | 38 | 1006.6 |